Total_Precipitation_Accumulation
0.83 0.80 0.89 0.66 0.52 0.46 0.50 0.49 0.49 0.47 0.45 0.44 0.44 0.46 0.45 0.45 0.46 0.50 0.58 0.75 0.78 0.84 0.93 1.08 1.14 1.09 1.01 0.98 0.97 0.87 0.78 0.79 0.87 0.88 0.84 0.94 1.05 1.29 1.59 1.49 1.43 1.00 0.89
0.61 0.60 0.73 0.59 0.43 0.42 0.41 0.42 0.40 0.40 0.42 0.41 0.43 0.44 0.47 0.53 0.55 0.59 0.66 0.83 0.85 0.92 0.99 1.09 1.08 0.95 0.95 0.87 0.78 0.71 0.68 0.79 0.89 0.94 0.88 0.82 1.04 1.37 1.56 1.50 1.54 0.93 0.83
0.44 0.45 0.48 0.54 0.44 0.36 0.36 0.40 0.41 0.44 0.43 0.40 0.41 0.45 0.50 0.66 0.74 0.76 0.82 1.01 1.11 1.12 1.07 1.06 0.90 0.78 0.78 0.67 0.63 0.63 0.67 0.80 0.93 1.14 1.20 0.89 0.79 1.33 1.49 1.39 1.08 0.72 0.71
0.35 0.38 0.37 0.43 0.44 0.37 0.34 0.37 0.39 0.42 0.42 0.43 0.49 0.52 0.55 0.64 0.75 0.86 0.97 1.11 1.19 1.10 0.97 0.79 0.68 0.59 0.55 0.48 0.50 0.55 0.66 0.84 1.10 1.46 1.57 1.16 0.68 1.07 1.31 1.15 0.89 0.71 0.69
0.34 0.33 0.43 0.45 0.43 0.39 0.33 0.36 0.38 0.42 0.43 0.46 0.51 0.55 0.57 0.62 0.71 0.83 0.90 1.00 0.96 0.79 0.65 0.58 0.57 0.47 0.41 0.37 0.42 0.53 0.66 0.88 1.14 1.46 1.37 1.29 1.10 1.09 1.11 1.05 0.91 0.87 0.80
0.40 0.36 0.41 0.45 0.42 0.43 0.38 0.34 0.39 0.42 0.47 0.51 0.57 0.60 0.58 0.64 0.66 0.66 0.69 0.78 0.73 0.64 0.53 0.55 0.55 0.45 0.38 0.35 0.39 0.48 0.64 0.92 1.08 0.94 0.96 1.10 0.99 1.03 1.03 1.10 1.05 0.96 0.85
0.60 0.54 0.51 0.53 0.51 0.47 0.39 0.35 0.37 0.42 0.50 0.55 0.60 0.62 0.59 0.62 0.62 0.60 0.61 0.61 0.55 0.51 0.49 0.51 0.52 0.44 0.45 0.47 0.45 0.49 0.68 0.96 0.94 0.80 0.85 1.17 1.01 0.84 1.02 1.22 1.27 1.11 0.89
0.67 0.66 0.62 0.63 0.60 0.58 0.47 0.43 0.45 0.47 0.51 0.56 0.59 0.58 0.59 0.61 0.58 0.56 0.56 0.51 0.41 0.38 0.43 0.50 0.54 0.48 0.47 0.54 0.50 0.53 0.68 0.85 0.71 0.73 0.73 0.83 0.74 0.78 0.98 1.19 1.28 1.18 0.99
0.82 0.76 0.70 0.67 0.60 0.62 0.59 0.54 0.57 0.59 0.59 0.59 0.60 0.57 0.57 0.57 0.58 0.54 0.53 0.46 0.41 0.39 0.41 0.46 0.50 0.47 0.45 0.50 0.57 0.64 0.78 0.97 0.88 0.87 0.70 0.78 0.72 0.88 1.08 1.24 1.32 1.26 1.20
1.20 0.97 0.82 0.83 0.81 0.72 0.69 0.65 0.67 0.66 0.64 0.66 0.62 0.65 0.66 0.66 0.61 0.59 0.56 0.52 0.51 0.50 0.46 0.45 0.50 0.48 0.50 0.50 0.58 0.78 1.03 0.97 0.77 0.85 0.89 0.73 0.77 1.06 1.34 1.36 1.43 1.46 1.43
1.58 1.33 1.09 0.97 0.94 0.88 0.78 0.72 0.85 0.86 0.84 0.84 0.84 0.85 0.82 0.89 0.84 0.79 0.69 0.73 0.72 0.72 0.73 0.72 0.76 0.70 0.68 0.62 0.75 1.02 1.08 0.90 0.92 1.07 1.07 0.82 0.97 1.30 1.57 1.60 1.58 1.59 1.60
1.77 1.46 1.35 1.21 1.09 1.01 0.85 0.91 1.23 1.14 1.08 1.15 1.20 1.08 1.18 1.25 1.21 0.90 0.94 1.14 1.24 1.30 1.25 1.34 1.47 1.21 1.04 1.09 1.57 1.66 1.12 1.04 1.17 1.21 1.17 1.05 1.30 1.68 1.85 1.92 1.88 1.73 1.68
2.04 1.69 1.57 1.44 1.34 1.34 1.43 1.26 1.37 1.45 1.46 1.45 1.44 1.42 1.45 1.26 1.15 1.12 1.29 1.53 1.69 1.74 1.71 1.99 2.06 1.62 1.72 2.06 2.15 1.93 1.42 1.36 1.48 1.39 1.50 1.51 1.55 1.97 2.36 2.38 2.31 2.06 1.88
2.31 2.02 1.81 1.67 1.67 1.72 1.67 1.61 1.50 1.53 1.50 1.55 1.63 1.60 1.71 1.81 1.76 1.79 1.89 1.89 2.03 2.16 2.44 2.51 2.67 2.32 2.30 2.18 2.03 1.96 1.83 1.89 1.78 1.93 2.29 2.05 1.78 2.04 2.68 2.81 2.72 2.48 2.08
2.47 2.18 2.13 1.88 1.78 1.84 1.94 1.99 1.78 1.89 1.82 1.79 1.92 2.00 2.03 2.23 2.26 2.29 2.26 2.26 2.10 2.26 2.48 2.86 2.83 3.05 3.01 2.69 2.27 2.12 2.14 2.20 2.12 2.23 2.48 2.51 2.32 2.35 3.03 3.40 3.29 2.99 2.55
2.43 2.26 2.22 2.09 2.12 2.20 2.17 2.20 2.26 2.28 2.30 2.20 2.15 2.18 2.24 2.44 2.68 2.68 2.59 2.56 2.35 2.35 2.67 2.93 3.00 3.46 3.33 3.18 2.68 2.44 2.29 2.26 2.25 2.38 2.61 2.79 2.71 2.65 3.02 3.47 3.68 3.58 3.20
2.22 2.31 2.46 2.59 2.77 2.83 2.79 2.73 2.66 2.70 2.65 2.65 2.76 2.76 2.78 2.76 2.83 2.74 2.75 2.64 2.65 2.71 2.87 2.94 3.10 3.48 3.27 3.19 3.02 2.75 2.53 2.38 2.29 2.45 2.78 3.09 2.81 2.69 2.98 3.40 3.77 3.71 3.51
2.25 2.36 2.59 2.69 3.04 3.21 3.23 3.29 3.21 3.14 3.02 3.09 3.11 3.14 3.10 3.02 2.89 2.96 2.79 2.63 2.80 2.89 3.05 3.26 3.25 3.35 3.44 3.43 3.27 2.93 2.76 2.66 2.32 2.40 2.57 2.74 2.95 2.55 2.88 3.40 3.63 3.41 3.38
2.61 2.86 3.18 3.23 3.17 3.26 3.45 3.58 3.37 3.29 3.16 3.08 3.02 3.09 3.00 2.86 2.83 3.15 2.99 3.00 3.09 3.27 3.17 2.94 3.38 3.50 3.49 3.46 3.07 2.98 2.62 2.57 2.47 2.36 2.47 2.52 2.74 2.71 2.74 2.79 3.21 3.07 3.28
2.96 3.30 3.46 3.53 3.72 3.99 4.17 4.08 3.83 3.41 3.11 2.99 2.94 2.89 2.86 2.88 2.83 3.13 2.92 2.94 3.16 3.47 3.54 3.48 3.64 3.51 3.37 3.44 2.97 2.83 2.51 2.27 2.25 2.20 2.04 2.26 2.36 2.12 2.27 2.46 2.81 2.39 2.59
2.97 3.20 3.48 3.90 4.25 4.32 4.13 4.05 3.95 3.63 3.34 3.01 2.72 2.66 2.79 2.72 2.79 3.08 2.81 3.14 3.21 3.37 3.55 3.55 3.70 3.56 3.34 3.44 3.36 2.90 2.38 2.09 2.00 1.83 1.85 2.00 1.94 1.98 2.27 2.62 2.86 2.80 2.45
2.79 3.08 3.49 3.91 4.24 4.14 4.21 4.39 4.31 4.09 3.44 3.07 2.88 2.78 2.72 2.67 2.68 2.76 3.15 3.14 3.24 3.41 3.44 3.38 3.44 3.28 3.01 3.28 3.41 3.27 2.64 2.30 1.93 1.58 1.76 1.74 1.86 2.11 2.15 2.16 2.48 2.81 2.67
2.84 3.23 3.49 3.77 3.92 3.97 4.14 4.27 4.00 3.78 3.29 3.12 3.12 2.93 2.79 2.81 2.82 2.92 3.12 3.20 3.19 3.07 3.19 3.34 3.17 3.08 2.96 3.02 3.19 3.26 2.81 2.37 1.95 1.66 1.56 1.58 1.91 2.12 2.07 2.03 1.98 2.16 2.26
2.81 3.32 3.71 3.71 3.74 3.68 3.83 3.92 3.74 3.37 3.09 2.98 2.98 2.75 2.66 2.61 2.61 2.71 2.79 2.95 3.01 2.94 3.00 2.91 2.91 2.97 2.96 2.79 2.92 2.90 2.75 2.56 2.38 1.92 1.55 1.51 1.72 1.85 1.85 1.71 1.78 2.03 2.15
2.53 2.91 3.30 3.59 3.66 3.51 3.47 3.50 3.60 3.39 3.09 2.88 2.78 2.66 2.60 2.59 2.40 2.35 2.49 2.66 2.70 2.62 2.57 2.75 2.99 2.94 2.80 2.67 2.72 2.76 2.88 2.79 2.51 2.20 1.79 1.65 1.58 1.45 1.55 1.60 1.67 1.74 1.96
2.36 2.69 2.93 3.18 3.20 3.13 3.05 3.06 3.15 3.17 3.11 2.84 2.62 2.59 2.58 2.47 2.30 2.19 2.20 2.34 2.43 2.42 2.40 2.46 2.55 2.59 2.58 2.68 2.69 2.63 2.75 2.71 2.59 2.46 2.05 1.77 1.62 1.30 1.32 1.40 1.53 1.61 1.72